FW6530 Weather Reports


Display with metric or nautical units.
time (UTC)temp
F
wind
direction
speed
MPH
gust
MPH
rain 1hr
in
rain 24hr
in
rain mn
in
humidity
%
barometer
mb
20260507203036 69 187 6.0 16.0 0.00 0.00 0.00 10 1020.6
20260507202522 69 193 4.0 14.0 0.00 0.00 0.00 10 1020.5
20260507202024 69 251 5.0 14.0 0.00 0.00 0.00 10 1020.7
20260507201539 69 177 4.0 12.0 0.00 0.00 0.00 12 1020.7
20260507201025 68 240 4.0 9.0 0.00 0.00 0.00 9 1020.7
20260507200524 67 173 3.0 15.0 0.00 0.00 0.00 11 1020.7
20260507200038 67 253 5.0 18.0 0.00 0.00 0.00 10 1020.7
20260507195522 67 178 7.0 18.0 0.00 0.00 0.00 10 1020.8
20260507195024 67 177 8.0 17.0 0.00 0.00 0.00 12 1020.9
20260507194541 67 259 4.0 18.0 0.00 0.00 0.00 10 1020.9
20260507194023 67 229 7.0 18.0 0.00 0.00 0.00 9 1020.8
20260507193524 67 147 5.0 14.0 0.00 0.00 0.00 11 1020.9
20260507193036 67 251 4.0 18.0 0.00 0.00 0.00 11 1021.0
20260507192524 66 239 7.0 18.0 0.00 0.00 0.00 13 1021.1
20260507192024 66 204 5.0 18.0 0.00 0.00 0.00 13 1021.1
20260507191853 66 206 8.0 18.0 0.00 0.00 0.00 12 1021.1
20260507191020 66 182 7.0 15.0 0.00 0.00 0.00 12 1021.2
20260507190524 66 180 4.0 14.0 0.00 0.00 0.00 15 1021.3
20260507190036 66 172 6.0 14.0 0.00 0.00 0.00 14 1021.3
20260507185523 66 256 4.0 13.0 0.00 0.00 0.00 16 1021.5
20260507185023 65 244 4.0 16.0 0.00 0.00 0.00 16 1021.5
20260507184538 65 198 8.0 16.0 0.00 0.00 0.00 15 1021.4
20260507184021 64 196 5.0 14.0 0.00 0.00 0.00 16 1021.6
20260507183521 64 271 5.0 12.0 0.00 0.00 0.00 17 1021.6
20260507183041 64 192 6.0 12.0 0.00 0.00 0.00 18 1021.6
20260507182524 63 178 6.0 12.0 0.00 0.00 0.00 15 1021.6
20260507182024 63 178 5.0 18.0 0.00 0.00 0.00 15 1021.8
20260507181540 63 211 8.0 18.0 0.00 0.00 0.00 17 1021.8
20260507181024 63 196 6.0 15.0 0.00 0.00 0.00 21 1021.8
20260507180521 62 193 5.0 15.0 0.00 0.00 0.00 21 1022.0
20260507180043 61 236 5.0 15.0 0.00 0.00 0.00 24 1022.0
20260507175528 61 240 6.0 18.0 0.00 0.00 0.00 24 1022.0
20260507175026 61 209 7.0 18.0 0.00 0.00 0.00 26 1022.1
20260507174543 60 240 5.0 15.0 0.00 0.00 0.00 28 1022.2
20260507174026 60 229 5.0 15.0 0.00 0.00 0.00 28 1022.3
20260507173525 60 240 6.0 16.0 0.00 0.00 0.00 30 1022.5
20260507173039 59 256 5.0 16.0 0.00 0.00 0.00 33 1022.4
20260507172526 59 234 6.0 15.0 0.00 0.00 0.00 32 1022.6
20260507172025 59 261 5.0 14.0 0.00 0.00 0.00 35 1022.6
20260507171538 58 236 3.0 14.0 0.00 0.00 0.00 36 1022.7
20260507171025 57 196 6.0 15.0 0.00 0.00 0.00 36 1022.7
20260507170525 56 215 5.0 15.0 0.00 0.00 0.00 37 1022.8
20260507170038 56 203 7.0 15.0 0.00 0.00 0.00 38 1022.8
20260507165526 56 257 6.0 15.0 0.00 0.00 0.00 38 1022.8
20260507165025 55 200 7.0 15.0 0.00 0.00 0.00 39 1022.9
20260507164536 55 173 6.0 12.0 0.00 0.00 0.00 39 1022.8
20260507164025 54 262 4.0 15.0 0.00 0.00 0.00 42 1022.9
20260507163525 53 219 7.0 15.0 0.00 0.00 0.00 42 1023.1
20260507163041 53 184 5.0 14.0 0.00 0.00 0.00 43 1023.1
20260507162529 52 196 7.0 14.0 0.00 0.00 0.00 43 1023.1
20260507162028 52 273 5.0 12.0 0.00 0.00 0.00 46 1023.3
20260507161540 51 271 5.0 14.0 0.00 0.00 0.00 46 1023.4
20260507161025 51 243 4.0 16.0 0.00 0.00 0.00 48 1023.5
20260507160526 50 276 6.0 16.0 0.00 0.00 0.00 48 1023.5
20260507160040 50 208 5.0 15.0 0.00 0.00 0.00 49 1023.5
20260507155527 49 189 5.0 15.0 0.00 0.00 0.00 50 1023.6
20260507155025 49 232 5.0 13.0 0.00 0.00 0.00 49 1023.5
20260507154541 49 218 4.0 13.0 0.00 0.00 0.00 48 1023.7
20260507154025 49 220 6.0 13.0 0.00 0.00 0.00 50 1023.7
20260507153525 49 205 5.0 12.0 0.00 0.00 0.00 49 1023.8
20260507153038 48 230 5.0 15.0 0.00 0.00 0.00 49 1023.8
20260507152526 48 178 4.0 15.0 0.00 0.00 0.00 50 1023.7
20260507152025 48 202 5.0 14.0 0.00 0.00 0.00 49 1023.7
20260507151535 48 252 6.0 14.0 0.00 0.00 0.00 50 1023.6
20260507151026 47 188 5.0 13.0 0.00 0.00 0.00 51 1023.6
20260507150525 47 195 4.0 10.0 0.00 0.00 0.00 52 1023.6
20260507150041 47 169 4.0 10.0 0.00 0.00 0.00 54 1023.6
20260507145525 46 173 4.0 9.0 0.00 0.00 0.00 56 1023.7
20260507145025 46 256 3.0 11.0 0.00 0.00 0.00 57 1023.8
20260507144539 46 213 4.0 11.0 0.00 0.00 0.00 57 1023.9
20260507144044 45 243 3.0 8.0 0.00 0.00 0.00 59 1024.0
20260507143525 45 247 3.0 10.0 0.00 0.00 0.00 59 1024.0
20260507143039 45 286 3.0 10.0 0.00 0.00 0.00 59 1024.1
20260507142526 45 243 4.0 9.0 0.00 0.00 0.00 59 1024.1
20260507142025 44 231 3.0 9.0 0.00 0.00 0.00 61 1024.1
20260507141539 44 240 3.0 9.0 0.00 0.00 0.00 64 1024.1
20260507141025 44 287 3.0 9.0 0.00 0.00 0.00 66 1024.2
20260507140525 43 257 3.0 7.0 0.00 0.00 0.00 66 1024.2
20260507140047 43 234 3.0 7.0 0.00 0.00 0.00 68 1024.3
20260507135525 43 225 2.0 7.0 0.00 0.00 0.00 70 1024.3
20260507135026 42 248 2.0 6.0 0.00 0.00 0.00 71 1024.3
20260507134535 42 282 3.0 7.0 0.00 0.00 0.00 71 1024.3
20260507134027 41 289 2.0 7.0 0.00 0.00 0.00 72 1024.3
20260507133527 40 257 1.0 4.0 0.00 0.00 0.00 74 1024.3
20260507133039 40 293 2.0 4.0 0.00 0.00 0.00 75 1024.3
20260507132525 39 304 2.0 4.0 0.00 0.00 0.00 76 1024.2
20260507132025 38 0 0.0 3.0 0.00 0.00 0.00 79 1024.2
20260507131544 37 306 1.0 3.0 0.00 0.00 0.00 79 1024.3
20260507131026 36 306 1.0 3.0 0.00 0.00 0.00 80 1024.3
20260507130523 35 306 0.0 3.0 0.00 0.00 0.00 82 1024.4
20260507130042 34 306 0.0 2.0 0.00 0.00 0.00 83 1024.4
20260507125525 33 306 0.0 3.0 0.00 0.00 0.00 85 1024.3
20260507125024 32 0 0.0 3.0 0.00 0.00 0.00 86 1024.4
20260507124540 31 306 0.0 3.0 0.00 0.00 0.00 86 1024.4
20260507124028 30 0 0.0 3.0 0.00 0.00 0.00 86 1024.4
20260507123525 30 306 1.0 3.0 0.00 0.00 0.00 86 1024.3
20260507123036 30 306 1.0 4.0 0.00 0.00 0.00 86 1024.3
20260507122525 30 306 2.0 4.0 0.00 0.00 0.00 86 1024.3
20260507122027 30 306 2.0 5.0 0.00 0.00 0.00 87 1024.3
20260507121541 30 307 2.0 5.0 0.00 0.00 0.00 88 1024.3
20260507121026 30 309 1.0 5.0 0.00 0.00 0.00 89 1024.3
20260507120527 29 309 3.0 7.0 0.00 0.00 0.00 90 1024.4
20260507120043 29 315 3.0 7.0 0.00 0.00 0.00 90 1024.3
20260507115527 28 31 2.0 4.0 0.00 0.00 0.00 90 1024.3
20260507115028 28 31 1.0 4.0 0.00 0.00 0.00 90 1024.3
20260507114539 28 32 2.0 4.0 0.00 0.00 0.00 90 1024.4
20260507114026 28 34 1.0 3.0 0.00 0.00 0.00 89 1024.3
20260507113525 28 34 1.0 3.0 0.00 0.00 0.00 89 1024.3
20260507113041 27 34 2.0 3.0 0.00 0.00 0.00 89 1024.3
20260507112526 27 0 0.0 1.0 0.00 0.00 0.00 89 1024.2
20260507112028 27 0 0.0 3.0 0.00 0.00 0.00 88 1024.2
20260507111544 28 35 1.0 3.0 0.00 0.00 0.00 88 1024.1
20260507111025 28 0 0.0 0.0 0.00 0.00 0.00 88 1024.2
20260507110525 28 0 0.0 1.0 0.00 0.00 0.00 88 1024.2
20260507110035 28 0 0.0 3.0 0.00 0.00 0.00 88 1024.3
20260507105525 28 0 0.0 3.0 0.00 0.01 0.00 88 1024.2
20260507105025 28 36 0.0 2.0 0.00 0.01 0.00 87 1024.1
20260507104536 28 36 0.0 1.0 0.00 0.01 0.00 87 1024.1
20260507104025 28 0 0.0 3.0 0.00 0.01 0.00 87 1024.3
20260507103525 29 0 0.0 3.0 0.00 0.01 0.00 87 1024.3
20260507103040 29 36 0.0 4.0 0.00 0.01 0.00 87 1024.4
20260507102525 29 34 0.0 4.0 0.00 0.01 0.00 87 1024.3
20260507102026 29 34 2.0 4.0 0.00 0.01 0.00 87 1024.3
20260507101557 29 71 1.0 2.0 0.00 0.01 0.00 88 1024.3
20260507101025 29 0 0.0 3.0 0.00 0.01 0.00 87 1024.3
20260507100524 29 0 1.0 3.0 0.00 0.01 0.00 87 1024.3
20260507100039 29 72 1.0 3.0 0.00 0.01 0.00 87 1024.2
20260507095525 29 72 1.0 3.0 0.00 0.01 0.00 86 1024.3
20260507095024 29 73 1.0 3.0 0.00 0.01 0.00 86 1024.3
20260507094536 29 0 0.0 0.0 0.00 0.01 0.00 86 1024.3
20260507094025 29 0 0.0 0.0 0.00 0.01 0.00 85 1024.4
20260507093525 29 0 0.0 0.0 0.00 0.01 0.00 85 1024.4
20260507093035 30 0 0.0 0.0 0.00 0.01 0.00 84 1024.3
20260507092532 30 0 0.0 0.0 0.00 0.01 0.00 85 1024.3
20260507092024 30 0 0.0 0.0 0.00 0.01 0.00 84 1024.3
20260507091555 30 0 0.0 0.0 0.00 0.01 0.00 84 1024.4
20260507091025 30 0 0.0 0.0 0.00 0.01 0.00 84 1024.3
20260507090525 30 0 0.0 0.0 0.00 0.01 0.00 85 1024.4
20260507090053 30 0 0.0 0.0 0.00 0.01 0.00 84 1024.4
20260507085524 30 0 0.0 0.0 0.00 0.01 0.00 84 1024.3
20260507085025 30 0 0.0 0.0 0.00 0.01 0.00 83 1024.3
20260507084538 30 0 0.0 2.0 0.00 0.01 0.00 83 1024.3
20260507084025 30 0 0.0 2.0 0.00 0.01 0.00 82 1024.1
20260507083525 30 0 0.0 2.0 0.00 0.01 0.00 83 1024.2
20260507083040 30 0 0.0 0.0 0.00 0.01 0.00 82 1024.2
20260507082525 30 0 0.0 2.0 0.00 0.01 0.00 81 1024.2
20260507082025 31 0 0.0 2.0 0.00 0.01 0.00 80 1024.1
20260507081549 31 74 0.0 2.0 0.00 0.01 0.00 79 1024.0
20260507081025 32 75 0.0 2.0 0.00 0.01 0.00 78 1024.1
20260507080525 32 0 0.0 1.0 0.00 0.01 0.00 76 1024.1
20260507080040 33 0 0.0 1.0 0.00 0.01 0.00 75 1024.0
20260507075523 33 0 0.0 1.0 0.00 0.01 0.00 74 1024.0
20260507075025 34 0 0.0 1.0 0.00 0.01 0.00 74 1024.0
20260507074541 34 0 0.0 1.0 0.00 0.01 0.00 73 1023.9
20260507074024 35 0 0.0 2.0 0.00 0.01 0.00 72 1023.8
20260507073525 35 75 0.0 2.0 0.00 0.01 0.00 71 1023.8
20260507073049 36 0 0.0 2.0 0.00 0.01 0.00 70 1023.7
20260507072525 36 0 0.0 7.0 0.00 0.01 0.00 69 1023.6
20260507072025 37 0 0.0 7.0 0.00 0.01 0.00 69 1023.5
20260507071535 37 40 2.0 6.0 0.00 0.01 0.00 68 1023.5
20260507071025 37 51 2.0 4.0 0.00 0.01 0.00 67 1023.4
20260507070524 37 55 0.0 7.0 0.00 0.01 0.00 67 1023.4
20260507070107 36 54 3.0 7.0 0.00 0.01 0.00 69 1023.4
20260507065525 34 42 1.0 5.0 0.00 0.01 0.00 71 1023.3
20260507065022 33 341 2.0 5.0 0.00 0.01 0.00 75 1023.3
20260507064547 33 259 2.0 4.0 0.00 0.01 0.00 76 1023.2
20260507064024 33 235 0.0 3.0 0.00 0.01 0.00 76 1023.1
20260507063523 33 0 0.0 2.0 0.00 0.01 0.00 76 1023.1
20260507063038 33 232 0.0 1.0 0.00 0.01 0.00 76 1023.0
20260507062525 33 0 0.0 1.0 0.00 0.01 0.00 76 1022.9
20260507062025 34 0 0.0 0.0 0.00 0.01 0.00 75 1022.9
20260507061538 34 0 0.0 1.0 0.00 0.01 0.00 74 1022.9
20260507061025 35 0 0.0 1.0 0.00 0.01 0.00 73 1022.9
20260507060525 35 0 0.0 0.0 0.00 0.01 0.00 72 1022.8
20260507060036 35 0 0.0 0.0 0.00 0.01 0.00 72 1022.8
20260507055525 36 0 0.0 2.0 0.00 0.01 0.01 71 1022.7
20260507055029 36 0 0.0 2.0 0.00 0.01 0.01 71 1022.7
20260507054536 36 0 1.0 3.0 0.00 0.01 0.01 71 1022.7
20260507054026 36 233 1.0 3.0 0.00 0.01 0.01 72 1022.6
20260507053526 36 233 2.0 3.0 0.00 0.01 0.01 72 1022.6
20260507053042 36 233 2.0 3.0 0.00 0.01 0.01 72 1022.6
20260507052524 36 233 1.0 3.0 0.00 0.01 0.01 72 1022.6
20260507052024 36 233 1.0 3.0 0.00 0.01 0.01 72 1022.5
20260507051541 36 233 1.0 4.0 0.00 0.01 0.01 72 1022.5
20260507051025 37 0 2.0 4.0 0.00 0.01 0.01 71 1022.5
20260507050525 37 157 2.0 3.0 0.00 0.01 0.01 71 1022.5
20260507050038 37 152 1.0 3.0 0.00 0.01 0.01 71 1022.4
20260507045527 37 152 1.0 2.0 0.00 0.05 0.01 70 1022.4
20260507045025 37 152 0.0 2.0 0.00 0.05 0.01 69 1022.2
20260507044545 38 0 0.0 1.0 0.00 0.05 0.01 68 1022.3
20260507044024 38 0 0.0 3.0 0.00 0.05 0.01 67 1022.2
20260507043525 39 0 0.0 3.0 0.00 0.05 0.01 66 1022.2
20260507043040 39 151 1.0 2.0 0.00 0.05 0.01 65 1022.1
20260507042526 40 0 0.0 2.0 0.00 0.05 0.01 64 1022.0
20260507042025 41 150 0.0 3.0 0.00 0.05 0.01 63 1022.0
20260507041536 41 0 1.0 3.0 0.00 0.05 0.01 61 1022.0
20260507041025 41 150 2.0 3.0 0.00 0.05 0.01 60 1021.8
20260507040525 42 150 2.0 3.0 0.00 0.05 0.01 60 1021.8
20260507040049 42 150 1.0 2.0 0.00 0.05 0.01 59 1021.8
20260507035524 42 150 1.0 3.0 0.00 0.05 0.01 59 1021.7
20260507035025 43 0 0.0 3.0 0.00 0.05 0.01 57 1021.6
20260507034538 43 150 1.0 3.0 0.00 0.05 0.01 56 1021.5
20260507034024 43 148 0.0 2.0 0.00 0.05 0.01 57 1021.6
20260507033524 44 0 0.0 2.0 0.00 0.05 0.01 57 1021.4
20260507033038 44 0 0.0 4.0 0.00 0.05 0.01 55 1021.3
20260507032523 44 148 0.0 4.0 0.00 0.05 0.01 53 1021.3
20260507032024 44 137 1.0 4.0 0.00 0.05 0.01 57 1021.1
20260507031537 45 169 0.0 2.0 0.00 0.05 0.01 55 1021.0
20260507031029 46 0 0.0 2.0 0.00 0.05 0.01 53 1020.9
20260507030525 47 0 0.0 2.0 0.00 0.05 0.01 51 1020.9
20260507030040 47 0 0.0 2.0 0.00 0.05 0.01 49 1020.8
20260507025522 48 0 0.0 2.0 0.00 0.05 0.01 48 1020.7
20260507025025 48 0 0.0 5.0 0.00 0.05 0.01 47 1020.7
20260507024535 49 0 1.0 5.0 0.00 0.05 0.01 45 1020.5
20260507024024 49 169 1.0 6.0 0.00 0.05 0.01 44 1020.4
20260507023527 49 165 2.0 8.0 0.00 0.05 0.01 44 1020.4
20260507023035 49 151 3.0 8.0 0.00 0.05 0.01 44 1020.2
20260507022523 50 150 4.0 9.0 0.00 0.05 0.01 43 1020.1
20260507022022 50 170 4.0 10.0 0.00 0.05 0.01 42 1020.1
20260507021540 50 169 4.0 12.0 0.00 0.05 0.01 42 1020.0
20260507021021 51 136 6.0 14.0 0.00 0.05 0.01 41 1019.9
20260507020526 51 158 6.0 14.0 0.00 0.05 0.01 40 1019.9
20260507020040 52 134 6.0 15.0 0.00 0.05 0.01 40 1019.8
20260507015525 52 164 8.0 15.0 0.00 0.05 0.01 40 1019.8
20260507015023 52 159 7.0 16.0 0.00 0.05 0.01 40 1019.7
20260507014550 53 120 8.0 16.0 0.00 0.05 0.01 39 1019.6
20260507014025 53 153 7.0 21.0 0.00 0.05 0.01 39 1019.5
20260507013526 53 154 9.0 21.0 0.00 0.05 0.01 38 1019.5
20260507013037 54 173 10.0 17.0 0.00 0.05 0.01 38 1019.5
20260507012528 54 150 8.0 22.0 0.00 0.05 0.01 38 1019.4
20260507012027 54 155 9.0 24.0 0.00 0.05 0.01 38 1019.4
20260507011535 53 207 9.0 27.0 0.00 0.05 0.01 37 1019.4
20260507011024 53 182 15.0 27.0 0.00 0.05 0.01 37 1019.3
20260507010525 54 198 14.0 25.0 0.00 0.05 0.01 36 1019.1
20260507010036 54 152 12.0 22.0 0.00 0.05 0.01 36 1019.0
20260507005527 54 184 10.0 18.0 0.00 0.05 0.01 36 1018.8
20260507005027 55 173 10.0 21.0 0.00 0.05 0.01 35 1018.6
20260507004542 55 145 11.0 27.0 0.00 0.05 0.01 35 1018.5
20260507004026 55 163 11.0 27.0 0.00 0.05 0.01 35 1018.4
20260507003526 55 180 14.0 31.0 0.00 0.05 0.01 35 1018.3
20260507003042 55 186 12.0 31.0 0.00 0.05 0.01 37 1018.1
20260507002527 54 169 7.0 15.0 0.00 0.05 0.01 39 1018.1
20260507002026 54 156 7.0 14.0 0.00 0.05 0.01 42 1018.1
20260507001536 54 82 2.0 10.0 0.00 0.05 0.01 49 1017.9
20260507001027 54 76 3.0 10.0 0.00 0.05 0.01 47 1018.0
20260507000526 54 101 6.0 10.0 0.00 0.05 0.01 47 1017.9
20260507000035 53 80 5.0 12.0 0.00 0.05 0.01 47 1017.8
20260506235525 53 78 6.0 12.0 0.00 0.05 0.01 48 1017.8
20260506235023 54 87 4.0 16.0 0.00 0.05 0.01 47 1017.9
20260506234543 55 125 7.0 16.0 0.00 0.05 0.01 45 1017.9
20260506234025 55 190 7.0 14.0 0.00 0.05 0.01 40 1017.7
20260506233525 55 141 7.0 17.0 0.00 0.05 0.01 43 1017.8
20260506233038 55 181 9.0 20.0 0.00 0.05 0.01 42 1017.8
20260506232524 55 119 7.0 20.0 0.00 0.05 0.01 43 1017.7
20260506232024 55 150 9.0 18.0 0.00 0.05 0.01 42 1017.5
20260506231542 55 138 10.0 19.0 0.00 0.05 0.01 41 1017.6
20260506231028 55 157 9.0 19.0 0.00 0.05 0.01 41 1017.6
20260506230523 55 162 9.0 15.0 0.00 0.05 0.01 40 1017.5
20260506230037 55 223 4.0 14.0 0.00 0.05 0.01 41 1017.5
20260506225525 55 246 4.0 18.0 0.00 0.05 0.01 43 1017.5
20260506225021 55 188 9.0 19.0 0.00 0.05 0.01 43 1017.5
20260506224537 54 215 7.0 19.0 0.00 0.05 0.01 47 1017.5
20260506224025 54 186 8.0 21.0 0.00 0.05 0.01 45 1017.5
20260506223524 54 182 7.0 27.0 0.00 0.05 0.01 46 1017.4
20260506223037 54 157 13.0 27.0 0.00 0.05 0.01 47 1017.4
20260506222524 55 196 12.0 27.0 0.00 0.05 0.01 47 1017.3
20260506222023 57 188 12.0 27.0 0.00 0.05 0.01 44 1017.2
20260506221539 58 249 13.0 27.0 0.00 0.05 0.01 37 1016.8
20260506221022 59 125 12.0 28.0 0.00 0.05 0.01 34 1016.4
20260506220524 59 105 11.0 28.0 0.00 0.05 0.01 35 1016.4
20260506220043 59 135 11.0 20.0 0.00 0.05 0.01 35 1016.4
20260506215521 59 184 9.0 20.0 0.00 0.05 0.01 36 1016.3
20260506215021 59 136 11.0 19.0 0.00 0.05 0.01 36 1016.2
20260506214540 59 119 8.0 16.0 0.00 0.05 0.01 36 1016.4
20260506214021 59 153 8.0 19.0 0.00 0.05 0.01 37 1016.5
20260506213523 60 156 9.0 19.0 0.00 0.05 0.01 37 1016.5
20260506213036 59 188 7.0 17.0 0.00 0.05 0.01 38 1016.5
20260506212524 58 183 6.0 24.0 0.00 0.05 0.01 42 1016.5
20260506212023 56 167 10.0 26.0 0.00 0.05 0.01 42 1016.6
20260506211536 56 173 10.0 26.0 0.00 0.05 0.01 41 1016.6
20260506211026 57 147 10.0 20.0 0.00 0.05 0.01 39 1016.5
20260506210529 58 136 8.0 22.0 0.00 0.05 0.01 37 1016.4
20260506210044 58 127 10.0 22.0 0.00 0.05 0.01 37 1016.4
20260506205521 59 105 8.0 17.0 0.00 0.05 0.01 38 1016.2
20260506205021 59 113 6.0 20.0 0.00 0.05 0.01 39 1016.3
20260506204538 60 116 6.0 20.0 0.00 0.05 0.01 36 1016.3
20260506204024 59 179 6.0 16.0 0.00 0.05 0.01 41 1016.4
20260506203524 58 197 6.0 17.0 0.00 0.05 0.01 39 1016.6